Miscellaneous Local Product
Issued by NWS North Platte, NE

Home | Current Version | Previous Version | Text Only | Print | Product List | Glossary On
Versions: 1 2 3 4 5 6 7 8 9 10 11 12 13 14 15 16 17 18 19 20 21 22 23 24 25 26 27 28 29 30 31 32 33 34 35 36 37 38 39 40 41 42 43 44 45 46 47 48 49 50
000
AXUS43 KLBF 172310
MISLBF


WESTERN AND NORTH CENTRAL NEBRASKA HOURLY WEATHER ROUNDUP
NATIONAL WEATHER SERVICE NORTH PLATTE NE
600 PM CDT FRI APR 17 2015

***STATIONS NOT REPORTING VARIABLES SUCH AS SKY/WEATHER OR
PRESSURE ARE PROVIDED BY THE NEBRASKA DEPARTMENT OF
ROADS...RAWS...AND APRS NETWORKS...AND ARE NOT UNDER
NATIONAL WEATHER SERVICE QUALITY CONTROL***

...OBSERVATIONS IN AND NEAR THE EASTERN PANHANDLE OF NEBRASKA...

CITY           SKY/WX    TMP DP  RH WIND       PRES   REMARKS
PINE RIDGE     RAIN      48  45  89 NE9       30.10F FOG
CHADRON        LGT RAIN  47  43  86 NE16      30.10S
ALLIANCE       LGT RAIN  48  47  96 NE17      30.03F FOG
SIDNEY         TSTM      48  43  82 SE3       30.00R VSB 1
WHITECLAY        N/A     45  44  97 N9          N/A
CRESCENT LAKE    N/A     51  51  99 E8G15       N/A
BIG SPRINGS      N/A     56  54  92 E9          N/A
$$

...OBSERVATIONS IN NORTH CENTRAL NEBRASKA...

CITY           SKY/WX    TMP DP  RH WIND       PRES   REMARKS
VALENTINE      LGT RAIN  55  52  89 NE8       30.09S
THEDFORD       LGT RAIN  54  53  97 E8G18     30.04S
AINSWORTH      CLOUDY    56  54  94 NE14      30.07F
O`NEILL        CLOUDY    65  51  60 N8        30.06F
ORD            LGT RAIN  64  57  78 NE9       30.01F
BROKEN BOW     LGT RAIN  61  56  83 NE12      30.01F
SPRINGVIEW       N/A     56  53  90 NE3         N/A
ROSE             N/A     57  56  99 N8          N/A
NEWPORT          N/A     57  55  95 E3          N/A
SARGENT          N/A     59  56  91 NE3G13      N/A
COMSTOCK         N/A     66  62  87 E8          N/A
EWING            N/A     67  52  57 NE6         N/A
$$

...OBSERVATIONS IN SOUTHWEST NEBRASKA AND FAR NORTHEAST COLORADO...

CITY           SKY/WX    TMP DP  RH WIND       PRES   REMARKS
WRAY           MOCLDY    63  48  56 E15G41    29.93F
HOLYOKE        MOCLDY    61  52  72 E15G21    29.95F
IMPERIAL       LGT RAIN  61  50  67 SE15      29.94F
OGALLALA       CLOUDY    58  54  88 E9        29.99S
NORTH PLATTE   CLOUDY    62  53  72 E15       29.99F
MCCOOK         MOSUNNY   69  51  52 E14       29.94F
LEXINGTON      MOSUNNY   65  59  80 E12       29.98S
PAXTON           N/A     57  55  93 E6          N/A
SUTHERLAND       N/A     56  53  88 E10         N/A
BRADY            N/A     59  56  88 N3          N/A
GOTHENBURG       N/A     61  54  76 E8          N/A
CALLAWAY         N/A     58  57  98 E9          N/A
$$

...NORTH PLATTE AREA...

CITY           SKY/WX    TMP DP  RH WIND       PRES   REMARKS
AIRPORT        CLOUDY    62  53  72 E15       29.99F
DOWNTOWN         N/A     61  55  79 E7          N/A
$$

...SOME WEATHER OBSERVATIONS FROM AROUND THE REGION...

CITY           SKY/WX    TMP DP  RH WIND       PRES   REMARKS
DENVER         PTSUNNY   51  36  56 NW8G18    29.97R
LARAMIE        LGT SNOW  33  30  88 E10       30.05F FOG     WCI  25
CHEYENNE       LGT RAIN  35  32  88 NW18G24   30.03F WCI  24
SCOTTSBLUFF    LGT RAIN  48  47  96 NE28G36   30.01F FOG
RAPID CITY     CLOUDY    52  39  61 SW9       30.12F
PIERRE         PTSUNNY   70  31  23 SE3       30.06S
WINNER         LGT RAIN  59  52  77 SW9       30.08S
SIOUX FALLS    PTSUNNY   74  42  31 N5        30.03S
OMAHA          PTSUNNY   76  52  43 SE8       29.98S
GRAND ISLAND   CLOUDY    67  54  63 E8        29.99F
KANSAS CITY    CLOUDY    74  55  51 E8        29.96S
WICHITA        CLOUDY    72  58  61 S12       29.95R
HAYS           MOSUNNY   72  52  49 SE16      29.93S
LIBERAL        SUNNY     72  46  40 S18G29    29.90F
GOODLAND       MOSUNNY   65  46  50 SE12      29.92S
$$



USA.gov is the U.S. government's official web portal to all federal, state and local government web resources and services.